Location: Haliburton Scout Reserve
(45.0900°N, 78.3200°W)
Time: 19:55:56
(UTC-04:00)

IDEFIX/ARIANE 42P - Visible Passes

Search period start: 24 April 2014 00:00
Search period end: 04 May 2014 00:00
Orbit: 786 x 804 km, 98.3° (Epoch: 23 April)

Date Brightness Start Highest point End Pass type
(mag) Time Alt. Az. Time Alt. Az. Time Alt. Az.
24 Apr 4.4 22:03:11 10° SSW 22:07:33 27° W 22:11:57 10° NW visible
25 Apr 3.5 21:34:18 10° S 21:39:17 48° W 21:44:18 10° NNW visible
26 Apr 2.6 21:05:58 10° SSE 21:11:09 85° WSW 21:16:22 10° NNW visible
26 Apr 5.3 22:50:15 10° W 22:51:32 11° W 22:52:49 10° WNW visible
27 Apr 2.8 20:38:05 10° SSE 20:43:07 56° ENE 20:48:11 10° N visible
27 Apr 4.8 22:19:20 10° SW 22:23:05 20° W 22:26:51 10° NW visible
28 Apr 4.0 21:50:04 10° SSW 21:54:45 35° W 21:59:29 10° NNW visible
29 Apr 3.0 21:21:26 10° S 21:26:33 62° W 21:31:42 10° NNW visible
30 Apr 2.6 20:53:18 10° SSE 20:58:27 76° ENE 21:03:39 10° N visible
30 Apr 5.1 22:35:54 10° WSW 22:38:39 14° W 22:41:26 10° NW visible
01 May 4.5 22:06:01 10° SSW 22:10:15 26° W 22:14:32 10° NW visible
02 May 3.6 21:37:03 10° S 21:41:59 45° W 21:46:57 10° NNW visible
03 May 2.7 21:08:39 10° S 21:13:49 79° WSW 21:19:02 10° NNW visible
